{"data":{"norad_id":51622,"intl_designator":"2022-012A","name":"ONEWEB-0410","alt_names":[],"object_type":"PAYLOAD","status":"ACTIVE","operator":null,"country":"UK","launch_date":"2022-02-10","launch_site_code":"FRGUI","launch_vehicle":null,"mission":null,"orbit_class":"UNKNOWN","rcs_meters":null,"size_class":null,"mass_kg":null,"dimensions":null,"purposes":["comms"],"wikipedia_slug":null,"has_3d_model":false,"image_url":null,"decayed_at":null,"tle_current":{"epoch":"2026-05-25T03:11:03.653088Z","epoch_age_seconds":66631,"freshness":"FRESH","line1":"1 51622U 22012A   26145.13268117  .00000063  00000+0  12883-3 0  9993","line2":"2 51622  87.9164  10.4397 0003058  97.6431 262.5048 13.17650931210661","mean_motion":13.17650931,"eccentricity":0.0003058,"inclination_deg":87.9164,"raan_deg":10.4397,"arg_perigee_deg":97.6431,"mean_anomaly_deg":262.5048,"bstar":0.00012883,"rev_number":21066,"period_min":109.28539312814,"perigee_km":1191.3903926837,"apogee_km":1196.0213317783,"semimajor_km":7571.842862231,"source":"CELESTRAK","updated_at":"2026-05-25T13:38:22.575546Z"}}}